Flag for Colombia Weather past 2 weeks in Santa Marta, Colombia

Now
90 °F

Partly sunny.


Feels Like: 103 °F
Forecast: N/A
Wind: 9 mph from Northwest

Location: Barranquilla / Ernestocortissoz

Current Time: Oct 20, 2014 at 4:48:17 PM

Latest Report: Oct 20, 2014 at 4:00 PM


Visibility: N/A

Pressure: 29.76 "Hg

Humidity: 67%

Dew point: 77 °F

Location of Santa MartaLocation

Historic Weather in Santa Marta — Graph

°F

Santa Marta temperature yesterday

Maximum temperature yesterday: 91 °F (at 12:00 PM)
Minimum temperature yesterday: 72 °F (at 7:00 PM)
Average temperature yesterday: 80 °F

Past Weeks' High & Low Weather Summary

 TemperatureHumidityPressure
High93 °F (Oct 7, 12:00 PM)100% (Oct 6, 3:00 AM)29.95 "Hg (Oct 6, 3:00 AM)
Low72 °F (Oct 19, 7:00 PM)63% (Oct 7, 12:00 PM)29.70 "Hg (Oct 5, 4:00 PM)
Average81 °F89%29.85 "Hg
* Reported Oct 5 3:00 PM — Oct 20 3:00 PM, Santa Marta, Weather by CustomWeather, © 2014

Note: Actual official high and low records may vary slightly from our data, if they occured in-between our weather recording intervals... More about our weather records

Advertising

Santa Marta weather history for previous 24 hours

 ConditionsComfort  
Time TempWeatherWind HumidityBarometerVisibility
3:00 PM
Oct 20
90 °FScattered clouds.6 mph71%29.77 "HgN/A
2:00 PM88 °FScattered clouds.8 mph75%29.80 "HgN/A
1:00 PM88 °FScattered clouds.5 mph75%29.82 "HgN/A
12:00 PM88 °FScattered clouds.7 mph79%29.87 "HgN/A
11:00 AM86 °FBroken clouds.2 mph79%29.90 "HgN/A
10:00 AM84 °FBroken clouds.5 mph84%29.93 "HgN/A
9:00 AM82 °FBroken clouds.2 mph89%29.94 "HgN/A
8:00 AM77 °FBroken clouds.No wind94%29.94 "HgN/A
7:00 AM75 °FPartly sunny.No wind100%29.91 "HgN/A
6:00 AM73 °FPartly sunny.No wind100%29.89 "HgN/A
5:00 AM73 °FPassing clouds.No wind100%29.87 "HgN/A
4:00 AM73 °FPassing clouds.2 mph100%29.85 "HgN/A
3:00 AM73 °FPassing clouds.No wind100%29.85 "HgN/A
2:00 AM73 °FPassing clouds.5 mph100%29.86 "HgN/A
1:00 AM73 °FPartly cloudy.5 mph100%29.91 "HgN/A
12:00 AM73 °FPartly cloudy.No wind100%29.92 "HgN/A
10:00 PM
Oct 19
73 °FPartly cloudy.2 mph100%29.89 "HgN/A
9:00 PM73 °FLight rain. Partly cloudy.5 mph100%29.91 "HgN/A
8:00 PM73 °FThunderstorms. Partly cloudy.5 mph100%29.91 "HgN/A
7:00 PM72 °FPartly cloudy.7 mph100%29.87 "HgN/A
6:00 PM73 °FLight rain. Passing clouds.14 mph94%29.88 "Hg4 mi
5:00 PM77 °FBroken clouds.6 mph100%29.84 "HgN/A
4:00 PM77 °FThunderstorms. Broken clouds.6 mph94%29.81 "Hg4 mi
Weather by CustomWeather, © 2014

See weather overviewHow to use our weather pages